Vorticity
nan nan nan nan nan nan nan nan nan nan nan nan nan nan nan nan nan nan nan nan nan nan nan nan nan nan nan nan nan nan nan nan nan nan nan nan nan nan nan nan nan nan nan
nan 9 10 8 9 8 8 8 8 9 9 8 8 10 10 9 8 9 7 7 8 10 8 9 8 9 7 4 7 6 8 9 11 10 8 6 8 11 9 9 8 7 nan
nan 8 9 9 8 8 10 8 9 9 10 9 9 8 9 8 8 8 9 9 8 7 8 11 8 7 7 9 8 9 11 9 8 6 7 8 8 12 14 14 12 11 nan
nan 10 10 11 9 9 9 11 9 9 9 10 9 9 9 8 8 8 9 9 10 10 8 8 8 9 9 10 8 9 6 6 8 11 12 13 15 13 10 8 11 10 nan
nan 11 12 12 10 11 10 10 9 10 9 10 9 9 10 8 8 13 11 9 8 8 10 10 8 7 10 12 11 7 8 11 8 8 9 10 9 11 10 6 8 7 nan
nan 11 10 10 10 9 10 10 10 8 11 10 10 9 8 9 14 13 9 9 10 10 9 9 8 10 14 9 7 6 9 10 10 6 4 5 5 6 9 9 9 11 nan
nan 13 11 10 10 10 10 10 10 10 9 10 10 9 8 7 12 13 11 8 8 8 8 8 9 9 9 13 11 9 9 14 9 6 9 8 7 9 9 10 9 8 nan
nan 14 10 12 10 10 10 9 8 10 10 10 11 9 9 9 11 10 8 5 7 8 9 9 8 8 7 13 11 12 13 12 16 17 17 14 14 15 12 10 10 12 nan
nan 11 19 12 12 11 11 9 9 9 9 9 11 11 8 11 13 7 5 7 8 8 9 10 13 12 17 12 7 7 10 9 10 12 14 16 15 11 10 12 11 9 nan
nan 11 16 15 10 12 11 11 10 10 9 11 10 11 10 11 11 11 4 6 10 11 13 13 12 13 15 11 8 9 10 14 11 4 4 5 7 8 8 9 12 12 nan
nan 17 15 11 13 12 10 12 11 11 10 11 11 12 12 10 11 14 6 3 9 10 9 13 16 18 8 6 8 12 12 16 14 7 9 9 9 11 9 9 11 14 nan
nan 11 18 15 11 12 11 9 11 10 11 10 10 10 11 14 15 16 12 4 7 10 10 12 22 17 10 9 13 11 10 11 11 11 10 11 10 10 12 9 7 9 nan
nan 11 12 14 17 16 13 11 8 10 12 9 9 9 12 13 10 12 15 10 8 11 16 20 17 11 9 12 14 9 8 9 10 10 12 10 10 10 10 8 8 9 nan
nan 12 13 12 16 16 14 15 12 9 7 11 10 10 12 9 9 10 10 12 12 12 12 11 6 7 5 10 9 9 9 10 12 11 12 11 10 8 6 10 10 9 nan
nan 11 13 14 14 15 14 11 12 15 19 20 14 13 10 7 6 10 13 13 15 17 6 5 8 8 9 8 7 10 10 11 10 12 11 9 8 8 9 9 8 9 nan
nan 11 11 14 12 13 12 12 14 12 13 13 22 3 14 10 16 17 15 12 17 13 4 7 8 9 9 9 10 11 11 11 10 11 9 9 9 9 12 8 7 8 nan
nan 8 13 9 8 12 14 12 7 7 6 16 22 10 7 13 20 16 17 21 12 -1 4 7 9 11 10 10 11 11 11 10 10 9 9 9 9 10 9 9 12 11 nan
nan 9 8 10 11 11 12 12 10 11 5 8 4 23 16 23 19 17 10 5 6 8 10 9 12 11 12 12 11 11 11 10 10 9 10 10 11 11 7 11 9 9 nan
nan 9 9 12 13 12 10 11 7 7 12 12 5 5 9 15 15 16 5 -0 8 10 10 10 10 12 12 10 11 11 12 11 10 8 8 10 12 11 8 9 11 11 nan
nan 7 6 11 15 12 10 8 11 7 12 10 8 8 8 6 8 11 9 10 10 11 10 10 10 12 13 14 12 12 10 9 10 10 10 13 11 9 9 10 10 13 nan
nan 19 14 8 8 8 14 12 10 10 10 10 11 17 13 5 10 11 10 10 9 10 10 11 11 12 9 12 13 12 11 11 10 7 10 9 11 12 10 10 14 11 nan
nan 12 12 11 9 15 13 10 14 14 10 10 12 24 11 2 9 11 10 10 9 11 11 11 12 9 8 11 12 11 9 10 12 13 8 8 12 10 10 12 11 9 nan
nan 12 10 9 10 13 11 13 10 10 15 12 19 15 9 9 9 10 13 10 11 12 8 9 11 11 14 11 10 9 8 13 13 9 8 12 11 11 12 10 9 10 nan
nan 11 13 12 15 8 9 10 14 10 10 15 13 10 10 10 11 10 12 10 12 9 10 13 15 9 5 10 13 11 19 14 10 14 14 12 11 8 6 8 13 12 nan
nan 10 12 13 14 14 11 12 9 14 14 11 8 9 11 13 11 13 12 12 11 12 12 11 12 15 15 15 13 9 10 19 14 21 18 3 11 17 13 15 13 13 nan
nan nan nan nan nan nan nan nan nan nan nan nan nan nan nan nan nan nan nan nan nan nan nan nan nan nan nan nan nan nan nan nan nan nan nan nan nan nan nan nan nan nan nan
CAPE
2818 3248 3238 2956 2805 2734 1884 2281 2746 2175 2813 2537 2706 2738 2561 1593 1853 2843 2928 2951 2648 2946 2454 2072 2527 2842 1479 881 759 1595 1004 1134 802 608 586 1484 1711 1910 1499 1875 1428 1632 942
2980 4025 2943 2909 2919 2596 2366 1976 2447 2853 2371 2837 2402 2437 2427 1908 2419 2634 2333 2448 2431 2090 2208 2749 2222 1411 3478 2889 1793 2911 1875 2175 1155 2465 1262 1028 2088 2137 2832 2836 1775 1319 1345
3235 2794 2788 2851 2791 2537 2524 2031 2593 2961 3056 2063 2633 2515 2566 2391 2719 2811 3102 3208 3061 2769 2395 2544 2324 2625 2884 2176 2450 1952 2197 1898 1694 1087 1135 954 1525 1151 1940 2830 3007 2361 1588
2970 2865 3469 3166 2924 2603 3090 3237 2619 3125 3121 2929 2785 2727 2647 2590 2499 2639 2510 2750 2311 2326 2617 2858 2679 3024 2882 3295 2588 3024 2544 2002 1782 1343 1048 1059 1356 1570 2037 1927 1855 1780 1181
4151 4445 4491 4380 4196 4037 4051 3810 3369 3237 2985 3121 3064 2762 2761 1946 1547 2749 2625 2926 2985 3069 2180 2354 2405 2292 1629 1859 1967 2664 2917 2039 1327 1543 1371 1394 1198 1485 1605 1841 2795 1154 1687
3968 3892 4598 5106 4782 4736 4578 4506 3880 3589 3490 3541 2950 2783 2615 1334 910 1013 2111 2340 2819 2782 2456 2791 3006 1754 1337 916 646 412 308 2395 2657 2095 1518 1495 2359 1487 1530 1993 2340 1685 1422
4029 4219 4718 4738 4851 4825 4648 4697 4302 4065 3550 3821 3262 2938 2969 2993 1166 649 828 1711 1896 2868 3210 3208 2079 1384 1595 2194 846 134 33 2 39 1703 1998 2404 2633 2558 2481 1972 2333 1855 1331
3219 3696 4403 4675 4554 4741 4746 4555 4341 4032 3873 3666 3506 3257 3319 3094 1398 739 627 1774 2292 2893 3099 3147 3150 2465 2311 1727 2235 2133 2320 2728 1488 963 999 1614 1936 1741 1593 1103 1068 675 386
128 728 2741 4025 4443 4459 4688 4630 4497 4288 4227 3972 3818 3885 3850 3612 1068 678 498 2150 2041 2878 2654 2951 3019 2407 1535 1056 1679 2187 2220 1999 6 0 0 0 0 0 0 0 0 0 0
1868 2202 2231 4130 4158 3974 4356 4759 4752 4645 4403 3615 3805 3948 3413 4069 2242 235 416 1656 1832 1200 2238 2879 1382 1971 443 448 1915 2278 2847 2542 2124 69 2 0 0 0 0 0 0 0 0
2323 2771 3088 3850 3898 3812 4389 4000 3910 4335 4121 3688 4346 4158 4031 3541 3684 494 12 2341 1327 1136 1777 3731 3358 198 3 7 51 1664 2197 1888 863 1379 1408 668 29 4 2 1 1 0 0
1906 2175 3457 3941 3773 3411 4133 3420 3777 3884 4120 4284 4181 3722 3166 4059 2379 75 0 231 1732 2388 3024 2790 2135 0 1 1 0 2 14 190 1292 856 791 53 11 4 0 0 0 0 0
1311 1876 1920 3218 3681 3560 2970 3378 2630 3579 2718 2737 3580 3612 3420 3878 3210 354 1 0 0 1496 2936 1224 17 2 0 0 0 0 0 153 606 433 44 14 7 0 0 2 2 2 5
1005 1586 1774 2178 2822 3587 3256 3512 2675 2394 2391 2311 2649 2524 1599 1208 1988 1973 237 21 1 58 6 0 0 4 0 59 0 0 0 60 54 16 21 9 1 0 0 8 11 28 39
775 789 1445 1551 2360 3062 2939 3076 1947 2379 1191 2061 1210 810 200 176 462 1217 1494 1230 1208 1410 901 27 37 42 57 114 34 10 0 0 0 2 19 8 3 7 11 14 10 18 27
490 429 755 1417 2017 1904 1319 584 2 2 5 6 168 417 837 6 65 313 588 678 806 103 491 253 133 231 468 283 254 83 2 0 0 9 7 10 12 18 22 30 8 16 19
454 547 603 1156 1575 1015 1173 357 870 0 1 0 0 14 77 48 23 0 5 3 0 23 1197 847 700 491 393 365 170 42 9 3 172 9 6 16 16 15 14 21 45 35 22
419 144 355 567 1105 1356 1636 873 456 270 229 623 1 1 2 0 1 1 2 0 0 41 826 467 221 246 335 192 120 47 32 28 8 40 42 31 20 20 116 116 32 57 38
329 290 297 475 539 1309 1977 831 533 15 580 1681 1 0 0 1 1 1 0 662 434 355 255 171 208 215 217 263 176 126 358 105 132 89 74 65 16 10 14 35 65 10 11
224 52 124 440 567 667 1188 1507 1025 1250 868 629 339 161 2 1 2 1 4 241 363 219 163 131 123 130 201 180 211 225 198 151 261 330 145 158 190 78 37 23 9 10 37
130 143 207 245 336 408 765 951 1387 1459 1333 591 790 455 0 20 7 3 22 319 330 164 123 90 97 112 579 776 213 153 141 144 325 205 108 194 110 44 18 7 8 5 3
175 225 220 263 465 570 1390 1390 1215 1646 1456 876 773 17 0 461 641 274 162 256 254 154 111 134 137 180 206 292 310 252 141 126 219 123 109 50 38 8 8 10 6 5 5
248 293 285 305 537 685 1301 1238 1601 1396 1128 1115 858 0 30 793 759 619 301 199 190 178 180 122 90 40 120 228 173 158 146 141 148 114 49 45 27 21 30 30 26 25 24
130 237 329 312 485 1170 881 1021 1125 969 998 799 365 79 462 849 634 674 379 264 170 176 203 95 197 31 31 26 66 15 155 191 202 68 62 28 29 29 36 60 59 54 50
52 262 501 642 1308 1069 826 954 964 923 955 960 1005 426 551 795 634 471 660 341 182 162 112 52 20 21 18 43 121 132 0 0 3 1 51 13 57 94 70 78 84 63 71
1180 917 1328 1621 968 1102 995 908 989 851 723 843 1043 1503 790 658 514 361 194 59 19 17 21 25 52 58 67 59 0 0 0 0 0 0 89 100 70 92 97 129 131 113 96